Showing default

SIMSAT 1, 26365

Orbit data source: Space-Track

SIMSAT 1, 26365 is a payload satellite owned by Eurockot (CIS) in LEO that was launched on Tue, 16 May 2000 UTC via an ROKOT launch vehicle from the Plesetsk Missile And Space Complex (PKMTR). Payload-class satellites include a variety of spacecraft equipped with specific instruments for various scientific and technological missions. These include communications satellites like Starlink; space stations such as the ISS; scientific satellites like the Hubble; Earth observation satellites from companies like Planet Labs, Umbra, and HawkEye 360; GPS; miniature CubeSats for education and research; and military/defense satellites.

Loading next visibility...
Identifier
26365, 2000-026A
Orbit
LEO
Country
Flag of CISCIS
Related business
Manufacturer
Khrunichev
Mission
Commercial Technology
Bus & Motor
SIMSAT, Unknown motor
Mass
657 kg wet, 657 kg dry
Launch date (UTC)
2000-05-16 (25 years ago)
Launch vehicle
ROKOT
Launch site
Plesetsk Missile And Space Complex (PKMTR)
Object type
Payload
Rocket body
Debris
Shape & HBR
Box + 1 Arm, 1.8 m
Radar Cross Section
9.625 m², Large (>1 m²)

Expand to show TLE details & history
Last TLE update: 15 hours ago

TLE from 15 hours ago
0 SIMSAT 1
1 26365U 00026A   25310.28064437  .00004440  00000-0  16686-3 0  9997
2 26365  86.3453 241.0981 0011309  99.6472 260.6053 15.26808846408360
Epoch: 2025-11-06T06:44Z
TLE epoch observation values (Epoch: 2025-11-06T06:44:07.673Z)
Latitude
-0.00001°
Longitude
94.32491°
Altitude
489.815 km
Speed
7.619 km/s
True Right ascension
16h 04m 23s
True Declination
0° 00' 00"
Sunlit
Object was in daylight at epoch
Visualization orbit readout
Latitude
Unknown
Longitude
Unknown
Altitude
Unknown
Speed
Unknown
Apparent Right ascension
Unknown
Apparent Declination
Unknown
Sunlit
N/A
Visualization observer readout
Local Sidereal Time
17:47:59
Azimuth
Unknown
Elevation
Unknown
Doppler factor
Unknown
Orbital elements
Apogee altitude
489.954 km
Perigee altitude
474.437 km
Semi-major axis
6,860.332 km
Eccentricity
0.00113
Inclination
86.3453°
RAAN
241.0981°
Arg. of periapsis
99.6472°
True anomaly
260.47748°
Mean anomaly
260.6053°
Eccentric anomaly
260.54139°
Mean motion
3.81967 °/min
Orbital period
94.25 mins
BSTAR
0.00016686
Loading maneuver chart data...
Computing Atmospheric mass density...
Loading historical data...
Loading historical data...
Loading historical data...
Loading historical data...
Loading historical data...
Loading historical data...
Loading historical data...
Other satellites on launch #26 in the year 2000 (2000-05-16 UTC)

Documentation

Showing up to 5 results
|